星链-34595 (STARLINK-34595)

导读 | 豆包AI

STARLINK-34595是美国SpaceX公司旗下星链星座的一颗 operational通信卫星,于2025年7月2日由猎鹰9号运载火箭从空军东部试验场发射入轨。卫星运行在近地轨道(LEO),湿质量575千克,倾角53.15°,轨道周期约90.8分钟,属于星链V2Mini批次,旨在为全球提供高速低延迟的宽带互联网服务,尤其覆盖传统基础设施匮乏的偏远区域。

Basic Information
目录编号:
64749
目录名称:
STARLINK-34595
国际标识:
2025-144AB
轨道中心:
EARTH
卫星名称:
星链-34595
卫星全名:
星链-34595 (STARLINK-34595)
卫星状态:
在轨 (已飞行255 天)
发射日期:
2025-07-02 UTC
国别 :
美国 (US)
星等 :
--
Orbit Information
数据来源 国际轨道数据 AOE轨道数据
星历时间 2026-03-14T06:55:11+0800
18小时前
查看轨道信息
2026-03-10T06:00:00+0800
4天前
查看轨道信息
半长轴 6853.299km 6853.407km
偏心率 0.0001369 0.0001271
轨道倾角 53.158° 53.159°
近地点辐角 84.861° 75.907°
升交点赤经 161.312° 180.069°
平近点角 275.255° 345.846°
近地点 474.223km 474.398km
远地点 476.101km 476.142km
周期 94.104分钟 94.106分钟
每日圈数 15.302178 15.301817
Detailed Information
固有亮度:
5
最大亮度:
2.5
卫星平台:
Starlink V1.0
覆盖范围:
全球
运营商:
太空探索技术公司
运营商所在国:
美国
制造商(研发单位):
太空探索技术公司
制造商所在国:
美国
使用方式:
暂无
Satellite Introduction
Starlink 计划是 SpaceX 推出的全球卫星互联网项目,通过发射低轨道卫星,为全球尤其是偏远地区提供高速、低延迟的互联网服务。自 2019 年起,Starlink 已部署数千颗卫星,旨在缩小全球数字鸿沟,推动互联网普及。该项目还为军事、航空等行业提供通信支持,带来广泛经济效益。
2D Orbit Map
3D Orbit Map
Orbit Altitude Analysis Chart
Orbit Inclination Analysis Chart
Orbit Comprehensive Analysis Chart
View Comprehensive Chart